Other Public Products
Issued by NWS Grand Forks, ND

Home | Current Version | Previous Version | Text Only | Print | Product List | Glossary On
Versions: 1 2 3 4 5 6 7 8 9 10 11 12 13 14 15 16 17 18 19 20 21 22 23 24 25 26 27 28 29 30 31 32 33 34 35 36 37 38 39 40 41 42 43 44 45 46 47 48 49 50
000
FPUS83 KFGF 130731
OPUFGF
PRAIRIE TO PINES WEATHER ROUNDUP
NATIONAL WEATHER SERVICE EASTERN NORTH DAKOTA/GRAND FORKS ND
100 AM CST WED DEC 13 2017

 **SATELLITE DATA USED TO AUGMENT SKY COVER AT AUTOMATED STATIONS**
 *****  WEATHER ACROSS EASTERN NORTH DAKOTA  *****

CITY           SKY/WX    TMP DP  RH WIND       PRES   REMARKS
GRAND FORKS    RAIN      36  33  89 NW18G26   29.43R
GRND FORKS AFB LGT RAIN  36  33  90 N16G23    29.44R
GRND FORKS NWS   N/A     34 N/A N/A N12         N/A
BUXTON           N/A     36  34  92 NW16        N/A
DEVILS LAKE    LGT RAIN  36  34  93 NW21G28   29.50R
FARGO          MOCLDY    32  28  85 S6        29.38F
WAHPETON ARPT  FAIR      30  25  80 NW6       29.39F WCI  24
$$

 *****  WEATHER ACROSS CENTRAL AND WESTERN NORTH DAKOTA  *****

CITY           SKY/WX    TMP DP  RH WIND       PRES   REMARKS
JAMESTOWN      MOCLDY    41  29  62 NW25G35   29.48R
BISMARCK       FAIR      45  30  55 NW28G41   29.65R
MINOT          MOCLDY    40  30  67 W29G36    29.63R
MINOT AFB      FAIR      38  29  70 NW25G32   29.62R
GARRISON         N/A     40  30  67 NW29G36   29.66R
WILLISTON      FAIR      40  27  59 NW28G39   29.81R
DICKINSON      FAIR      42  25  50 NW28G40   29.76R
HETTINGER      MOCLDY    44  23  43 NW30G43   29.81R
$$

 *****  OTHER OBSERVATIONS NORTHEAST NORTH DAKOTA  *****

CITY           SKY/WX    TMP DP  RH WIND       PRES   REMARKS
WALHALLA       FAIR      32  32 100 N23       29.51R WCI  19
LANGDON        PTSUNNY   34  34 100 N23G33    29.50R WCI  22
CAVALIER       FAIR      28  25  86 N24G32    29.48R WCI  14
GRAFTON        FAIR      34  30  86 NW17G30   29.46R WCI  23
CANDO          CLOUDY    36  36 100 NW15G24   29.54S
FORT TOTTEN      N/A     35  33  92 NW9       29.95S
ROLLA          FAIR      34  32  93 NW24G33   29.55R WCI  21
RUGBY          PTSUNNY   36  36 100 NW21G28   29.56R
 ***** THE ABOVE OBSERVATIONS ARE NON NWS ARE NOT QUALITY
        CONTROLLED AND MAY MIS-REPORT RAIN FOR SNOW...
$$

 *****  OTHER OBSERVATIONS SOUTHEAST NORTH DAKOTA *****

CITY           SKY/WX    TMP DP  RH WIND       PRES   REMARKS
COOPERSTOWN    PTSUNNY   37  32  81 NW25      29.47R
VALLEY CITY    CLOUDY    37  34  87 NW26      29.47R
OAKES            N/A     43  27  52 NW21      29.47R
GWINNER          N/A     43  27  52 NW17G23   29.43F
SHEYENNE NWR     N/A     41  28  60 NW14      29.95S
BUFFALO          N/A     38  27  66 SW20        N/A
WYNDMERE       NOT AVBL
 ***** THE ABOVE OBSERVATIONS ARE NON NWS ARE NOT QUALITY
       CONTROLLED AND MAY MIS-REPORT RAIN FOR SNOW...
$$

  *****  WEATHER ACROSS NORTHERN MINNESOTA  *****

CITY           SKY/WX    TMP DP  RH WIND       PRES   REMARKS
FLAG ISLAND    CLOUDY    14  10  85 E6        29.49R WCI   5
WARROAD        CLOUDY    18  12  79 NE13      29.47R WCI   4
ROSEAU         CLOUDY    19  16  86 NE14      29.45R WCI   6
HALLOCK        FAIR      27  25  93 N8        29.44R WCI  18
THF RVR FALLS  CLOUDY    33  29  85 W9        29.39R
HALSTAD        NOT AVBL
FOSSTON        MIX PCPN  30  28  93 SW8       29.39R WCI  23
BAUDETTE       CLOUDY    15  13  91 E10       29.45R WCI   2
WASKISH        CLOUDY    18  16  93 E7        29.42S WCI   8
CROOKSTON      MIX PCPN  34  32  93 NW14      29.42R WCI  24
$$
  *****  WEATHER ACROSS CENTRAL AND WEST MINNESOTA  *****

CITY           SKY/WX    TMP DP  RH WIND       PRES   REMARKS
BEMIDJI        MOCLDY    21  19  93 NE9       29.39F WCI  10
PARK RAPIDS    MIX PCPN  21  18  88 E5        29.40F WCI  15
WADENA         FAIR      25  25 100 E3        29.38F
DETROIT LAKES  FAIR      28  27  93 E3        29.36F
MOORHEAD       CLOUDY    32  27  80 CALM      29.39F
FERGUS FALLS   FAIR      30  25  80 SW3       29.42S
ELBOW LAKE     FAIR      29  26  90 W7        29.40F WCI  22
MORRIS MN      FAIR      28  25  86 SW5       29.38F WCI  23
STAPLES        FAIR      19  19 100 SE5       29.40F WCI  13
WHEATON        FAIR      43  25  49 W16       29.41F
$$
  *****  WEATHER ELSEWHERE ACROSS MINNESOTA  *****

CITY           SKY/WX    TMP DP  RH WIND       PRES   REMARKS
DULUTH         CLOUDY    14  13  95 SE12      29.52F WCI   0
INTRNTL FALLS  CLOUDY    14  10  84 E9        29.49F WCI   2
ELY            CLOUDY    14  10  85 SE10      29.52F WCI   1
CLOQUET        CLOUDY    12  10  92 E7        29.50F WCI   2
BRAINERD       CLOUDY    22  18  85 SE6       29.45F WCI  14
HIBBING        CLOUDY    12  10  92 SE12      29.49F WCI  -2
ALEXANDRIA     FAIR      32  26  78 SW9       29.39F WCI  24
SAINT CLOUD    MOCLDY    24  22  91 MISG      29.45F
MINNEAPOLIS    MOCLDY    26  24  92 SE8       29.51F WCI  18
$$

  *****  WEATHER ACROSS SOUTH DAKOTA  *****

CITY           SKY/WX    TMP DP  RH WIND       PRES   REMARKS
SIOUX FALLS    FAIR      35  24  64 SW5       29.53F
BROOKINGS        N/A     38  25  59 MISG        N/A
WATERTOWN      FAIR      39  26  59 W18       29.44F
HURON          FAIR      49  21  33 NW25G37   29.53F
SISSETON         N/A     45  25  45 W23G31    29.41F
ABERDEEN       FAIR      46  23  40 NW14      29.51S
MITCHELL       FAIR      45  23  42 W16       29.58F
PIERRE         FAIR      53  24  32 NW31G45   29.66F
MOBRIDGE       MOCLDY    50  27  40 NW30G48   29.59R
RAPID CITY     FAIR      51  16  24 NW31G43   29.89S
$$

  *****  SOME WEATHER IN NEARBY STATES *****

CITY           SKY/WX    TMP DP  RH WIND       PRES   REMARKS
GLASGOW MT     FAIR      39  24  55 NW17      30.01R
GREAT FALLS MT FAIR      31  10  41 W8        30.25R WCI  23
CHEYENNE WY    FAIR      44   5  20 W18       30.08S
SCOTTSBLUFF NE FAIR      37  15  40 NW12      30.02R
OMAHA NE       FAIR      29  22  75 SE8       29.72F WCI  21
DES MOINES IA  FAIR      30  23  75 S10       29.71F WCI  21
DAVENPORT IA   CLOUDY    27  10  49 S9        29.83F WCI  18
CHICAGO IL     CLOUDY    22   9  57 S5        29.87F WCI  16
EAU CLAIRE WI  CLOUDY    20  12  71 SE7       29.61F WCI  11
LA CROSSE WI   MOCLDY    26  17  68 S12       29.66F WCI  16
$$

  *****  SOME NATIONAL WEATHER *****

CITY           SKY/WX    TMP DP  RH WIND       PRES   REMARKS
LA GUARDIA NY  FAIR      27   6  41 NW29G35   29.51R WCI  11
RALEIGH NC     FAIR      29   8  41 NW7       29.85R WCI  22
ATLANTA GA     FAIR      33  15  47 NW15G25   30.01R WCI  23
NEW ORLEANS LA FAIR      43  39  86 N3        30.17S
OKLAHOMA CITY  FAIR      37  26  64 S12       30.02F
ALBUQUERQUE NM FAIR      36   3  25 SE3       30.27F
SALT LAKE CITY LGT SNOW  24  24 100 CALM      30.40F VSB 3/4
LOS ANGELES CA FAIR      62  28  27 VRB3      30.04S
BOISE ID       CLOUDY    23  20  88 NE5       30.51F WCI  17
SEATTLE WA     CLOUDY    42  34  73 NE9       30.42R
$$

*** WEATHER ACROSS MANITOBA...SASKATCHEWAN AND ONTARIO ***
                ***ONTARIO***

CITY           SKY/WX    TMP DP  RH WIND       PRES   REMARKS
GERALDTON      CLOUDY   -18 -24  76 CALM      29.79F
THUNDER BAY    FLURRIES   5   3  92 CALM      29.75F
SIOUX LOOKOUT  FLURRIES   5   0  78 E5        29.60  WCI  -4
TORONTO        MOCLDY    10   5  79 NW9       29.62R WCI  -2
BIG TROUT LK   MOCLDY   -18 -24  76 E3        29.81F
PICKLE LAKE    NOT AVBL
DRYDEN         LGT SNOW   9   5  85 E8        29.54S WCI  -4
KENORA         FLURRIES  10   9  92 E9        29.50S WCI  -2
$$
                *** MANITOBA***

CITY           SKY/WX    TMP DP  RH WIND       PRES   REMARKS
BRANDON        PTCLDY    32  28  86 NW18G25   29.55R WCI  20
DAUPHIN        CLOUDY    30  27  86 N10       29.62R WCI  21
ISLAND LAKE    FLURRIES   3  -2  78 E8        29.69S WCI -10
PILOT MOUND      N/A     34  28  80 N15         N/A  WCI  24
THE PAS        CLOUDY    25  23  93 N17       29.68R WCI  11
THOMPSON       LGT SNOW   5   1  85 NE7       29.74R FOG     WCI  -7
WINNIPEG       CLOUDY    19  18  93 N10       29.53R FOG     WCI   8
LYNN LAKE      LGT SNOW   7   3  85 N8        29.77R WCI  -6
CHURCHILL      CLOUDY   -17 -22  76 SW6       29.95R WCI -31
GILLAM         CLEAR    -17 -22  76 E5        29.84R WCI -29
$$
                ***SASKATCHEWAN***

CITY           SKY/WX    TMP DP  RH WIND       PRES   REMARKS
ESTEVAN        PTCLDY    36  30  80 NW23G31   29.74R
KINDERSLEY     CLEAR     32  27  80 NW7       30.06R
LLOYDMINSTER   CLEAR     30  25  80 W9        30.03R WCI  22
PRINCE ALBERT  CLEAR     32  27  80 NW14G21   29.88R WCI  22
REGINA         CLEAR     34  28  80 NW18G26   29.84R WCI  23
YORKTON        MOCLDY    32  28  86 NW16G22   29.70R WC



USA.gov is the U.S. government's official web portal to all federal, state and local government web resources and services.